CW0351 Weather Reports


Display with metric or nautical units.
time (UTC)temp
F
wind
direction
speed
MPH
gust
MPH
rain 1hr
in
rain 24hr
in
rain mn
in
humidity
%
barometer
mb
20260901091614 70 0 0.0 0.0 0.00 0.00 0.00 98 1016.7
20260901090057 70 0 0.0 0.0 0.00 0.00 0.00 98 1016.7
20260901084559 70 0 0.0 0.0 0.00 0.00 0.00 98 1016.8
20260901083058 69 0 0.0 0.0 0.00 0.00 0.00 98 1017.1
20260901081556 70 0 0.0 0.0 0.00 0.00 0.00 98 1017.1
20260901080104 70 0 0.0 0.0 0.00 0.00 0.00 98 1016.9
20260901074559 70 0 0.0 0.0 0.00 0.00 0.00 98 1017.0
20260901073058 70 0 0.0 0.0 0.00 0.00 0.00 98 1016.9
20260901071605 70 0 0.0 0.0 0.00 0.00 0.00 98 1017.0
20260901070109 70 0 0.0 0.0 0.00 0.00 0.00 98 1017.2
20260901064559 70 0 0.0 0.0 0.00 0.00 0.00 97 1017.1
20260901063108 70 0 0.0 0.0 0.00 0.00 0.00 97 1017.3
20260901061604 70 0 0.0 0.0 0.00 0.00 0.00 97 1017.5
20260901054555 70 0 0.0 0.0 0.00 0.00 0.00 97 1017.6
20260901053105 70 0 0.0 0.0 0.00 0.00 0.00 97 1017.9
20260901051611 70 0 0.0 0.0 0.00 0.00 0.00 97 1017.6
20260901050108 70 0 0.0 0.0 0.00 0.00 0.00 97 1017.9
20260901044606 69 0 0.0 0.0 0.00 0.00 0.00 97 1017.8
20260901043102 69 270 0.0 6.0 0.00 0.00 0.00 97 1017.7
20260901041630 69 0 0.0 0.0 0.00 0.00 0.00 96 1018.2
20260901040110 69 0 0.0 0.0 0.00 0.00 0.00 96 1018.5
20260901034608 69 0 0.0 0.0 0.00 0.00 0.00 95 1018.5
20260901033057 69 0 0.0 0.0 0.00 0.00 0.00 95 1018.6
20260901031601 69 0 0.0 0.0 0.00 0.00 0.00 95 1018.8
20260901030100 68 0 0.0 0.0 0.00 0.00 0.00 95 1018.8
20260901024557 68 0 0.0 0.0 0.00 0.00 0.00 94 1018.6
20260901023102 68 0 0.0 0.0 0.00 0.00 0.00 94 1018.9
20260901021602 68 0 0.0 0.0 0.00 0.00 0.00 94 1018.8
20260901020100 68 0 0.0 0.0 0.00 0.00 0.00 93 1018.8
20260901014556 68 0 0.0 0.0 0.00 0.00 0.00 92 1018.9
20260901013107 69 0 0.0 0.0 0.00 0.00 0.00 91 1018.8
20260901011558 69 0 0.0 0.0 0.00 0.00 0.00 91 1018.8
20260901010108 69 0 0.0 0.0 0.00 0.00 0.00 89 1019.0
20260901004611 69 0 0.0 0.0 0.00 0.00 0.00 88 1018.8
20260901003100 70 0 0.0 0.0 0.00 0.00 0.00 88 1018.5
20260901001557 70 0 0.0 0.0 0.00 0.00 0.00 88 1018.5
20260831234602 71 0 0.0 0.0 0.00 0.00 0.00 85 1018.4
20260831233057 72 0 0.0 0.0 0.00 0.00 0.00 83 1018.3
20260831231555 73 0 0.0 0.0 0.00 0.00 0.00 82 1018.4
20260831224557 74 0 0.0 0.0 0.00 0.00 0.00 84 1018.7
20260831223105 73 0 0.0 0.0 0.00 0.00 0.00 82 1018.8
20260831221602 73 0 0.0 0.0 0.00 0.00 0.00 82 1019.0
20260831220101 73 0 0.0 0.0 0.00 0.00 0.00 82 1018.9
20260831214613 74 0 0.0 0.0 0.00 0.00 0.00 82 1019.2
20260831213101 74 0 0.0 3.0 0.00 0.00 0.00 81 1019.3
20260831211600 74 0 0.0 0.0 0.00 0.00 0.00 82 1019.1
20260831210056 75 0 0.0 0.0 0.00 0.00 0.00 83 1019.4
20260831204606 75 0 0.0 0.0 0.00 0.00 0.00 83 1019.3
20260831203102 75 0 0.0 0.0 0.00 0.00 0.00 82 1019.5
20260831201607 76 0 0.0 0.0 0.00 0.00 0.00 80 1019.6
20260831200112 76 0 0.0 0.0 0.00 0.00 0.00 77 1019.8
20260831194624 77 0 0.0 0.0 0.00 0.00 0.00 73 1020.0
20260831193058 77 0 0.0 0.0 0.00 0.00 0.00 70 1020.1
20260831191602 77 0 0.0 0.0 0.00 0.00 0.00 69 1020.1
20260831184601 77 0 0.0 0.0 0.00 0.00 0.00 69 1020.3
20260831183056 77 0 0.0 0.0 0.00 0.00 0.00 69 1020.2
20260831181605 77 0 0.0 0.0 0.00 0.00 0.00 69 1020.5
20260831180107 77 0 0.0 0.0 0.00 0.00 0.00 70 1020.5
20260831174559 77 0 0.0 0.0 0.00 0.00 0.00 72 1020.5
20260831173058 76 0 0.0 0.0 0.00 0.00 0.00 69 1020.5
20260831171602 76 0 0.0 0.0 0.00 0.00 0.00 69 1020.6
20260831170111 77 0 0.0 3.0 0.00 0.00 0.00 72 1020.4
20260831164614 76 0 0.0 0.0 0.00 0.00 0.00 71 1020.5
20260831163110 76 0 0.0 6.0 0.00 0.00 0.00 70 1020.6
20260831161608 75 0 0.0 4.0 0.00 0.00 0.00 74 1020.5
20260831160059 74 0 0.0 5.0 0.00 0.00 0.00 78 1020.7
20260831154627 72 0 0.0 7.0 0.00 0.00 0.00 80 1020.5
20260831153105 71 0 0.0 0.0 0.00 0.00 0.00 84 1020.7
20260831151600 71 0 0.0 4.0 0.00 0.00 0.00 88 1020.7
20260831150058 70 0 0.0 3.0 0.00 0.00 0.00 92 1020.8
20260831144603 69 0 0.0 0.0 0.00 0.00 0.00 95 1020.9
20260831143108 68 0 0.0 2.0 0.00 0.00 0.00 97 1021.0
20260831141558 68 0 0.0 6.0 0.00 0.00 0.00 98 1021.1
20260831140056 68 0 0.0 3.0 0.00 0.00 0.00 99 1020.8
20260831134602 67 0 0.0 3.0 0.00 0.00 0.00 99 1020.7
20260831133057 68 0 0.0 4.0 0.00 0.00 0.00 99 1020.9
20260831131558 68 0 0.0 0.0 0.00 0.00 0.00 99 1021.1
20260831130110 68 0 0.0 0.0 0.00 0.00 0.00 99 1020.9
20260831124556 68 0 0.0 0.0 0.00 0.00 0.00 99 1020.9
20260831123058 68 0 0.0 0.0 0.00 0.00 0.00 99 1020.9
20260831121607 68 0 0.0 0.0 0.00 0.00 0.00 99 1020.8
20260831120112 67 0 0.0 0.0 0.00 0.00 0.00 99 1020.7
20260831114557 67 0 0.0 0.0 0.00 0.00 0.00 99 1020.6
20260831113104 66 0 0.0 0.0 0.00 0.00 0.00 99 1020.5
20260831111604 66 0 0.0 0.0 0.00 0.00 0.00 99 1020.2
20260831110105 66 0 0.0 0.0 0.00 0.00 0.00 99 1020.0
20260831104600 66 0 0.0 0.0 0.00 0.00 0.00 99 1020.1
20260831103057 66 0 0.0 0.0 0.00 0.00 0.00 99 1020.2
20260831101604 66 0 0.0 0.0 0.00 0.00 0.00 98 1020.1
20260831100104 66 0 0.0 0.0 0.00 0.00 0.00 98 1020.0
20260831094556 66 0 0.0 0.0 0.00 0.00 0.00 98 1019.7
20260831093058 66 0 0.0 0.0 0.00 0.00 0.00 98 1019.5
20260831091609 66 0 0.0 0.0 0.00 0.00 0.00 98 1019.4
20260831090057 66 0 0.0 0.0 0.00 0.00 0.00 98 1019.2
20260831084556 66 0 0.0 0.0 0.00 0.00 0.00 98 1019.6
20260831083104 66 0 0.0 0.0 0.00 0.00 0.00 98 1019.6
20260831081558 66 0 0.0 0.0 0.00 0.00 0.00 98 1019.5
20260831080108 67 0 0.0 0.0 0.00 0.00 0.00 98 1019.5
20260831074557 67 0 0.0 0.0 0.00 0.00 0.00 98 1019.4
20260831073111 68 0 0.0 0.0 0.00 0.00 0.00 98 1019.4
20260831071558 68 0 0.0 0.0 0.00 0.00 0.00 98 1019.5
20260831070058 69 0 0.0 0.0 0.00 0.00 0.00 98 1019.5
20260831064604 69 0 0.0 0.0 0.00 0.00 0.00 98 1019.4
20260831063100 69 0 0.0 0.0 0.00 0.00 0.00 98 1019.4
20260831061557 69 0 0.0 0.0 0.00 0.00 0.00 98 1019.6
20260831060109 69 0 0.0 0.0 0.00 0.00 0.00 98 1019.3
20260831054601 70 0 0.0 0.0 0.00 0.00 0.00 98 1019.0
20260831053059 70 0 0.0 0.0 0.00 0.00 0.00 98 1019.2
20260831051606 70 0 0.0 0.0 0.00 0.00 0.00 97 1019.3
20260831044605 70 0 0.0 0.0 0.00 0.00 0.00 97 1019.7
20260831043057 71 0 0.0 0.0 0.00 0.00 0.00 97 1019.7
20260831041645 71 0 0.0 0.0 0.00 0.00 0.00 97 1019.7
20260831040101 71 0 0.0 0.0 0.00 0.00 0.00 97 1019.8
20260831034600 71 0 0.0 0.0 0.00 0.00 0.00 97 1019.8
20260831033105 71 0 0.0 0.0 0.00 0.00 0.00 96 1019.8
20260831031559 72 203 2.0 12.0 0.00 0.00 0.00 96 1019.5
20260831030103 72 0 0.0 3.0 0.00 0.00 0.00 96 1019.8
20260831024616 72 0 0.0 3.0 0.00 0.00 0.00 96 1019.3
20260831023058 72 0 0.0 4.0 0.00 0.00 0.00 95 1019.6
20260831021558 73 292 0.0 5.0 0.00 0.00 0.00 94 1019.7
20260831014558 73 0 0.0 0.0 0.00 0.00 0.00 93 1019.5
20260831013108 73 0 0.0 0.0 0.00 0.00 0.00 92 1019.6
20260831011558 73 0 0.0 0.0 0.00 0.00 0.00 91 1019.6
20260831010122 73 0 0.0 0.0 0.00 0.00 0.00 89 1019.6
20260831004559 73 0 0.0 0.0 0.00 0.00 0.00 88 1019.2
20260831003103 73 0 0.0 0.0 0.00 0.00 0.00 87 1019.1
20260831001608 73 0 0.0 0.0 0.00 0.00 0.00 86 1019.0
20260831000113 74 0 0.0 0.0 0.00 0.00 0.00 85 1018.9
20260830234559 74 0 0.0 0.0 0.00 0.00 0.00 84 1018.8
20260830233110 74 0 0.0 0.0 0.00 0.00 0.00 83 1019.1
20260830231603 75 0 0.0 0.0 0.00 0.00 0.00 83 1019.1
20260830230059 75 0 0.0 0.0 0.00 0.00 0.00 81 1019.0
20260830224557 75 0 0.0 0.0 0.00 0.00 0.00 80 1019.1
20260830223134 76 0 0.0 0.0 0.00 0.00 0.00 79 1018.9
20260830221605 76 0 0.0 0.0 0.00 0.00 0.00 77 1018.8
20260830220106 76 0 1.0 5.0 0.00 0.00 0.00 77 1018.9
20260830214555 77 214 0.0 8.0 0.00 0.00 0.00 79 1018.8
20260830213102 78 0 0.0 7.0 0.00 0.00 0.00 80 1018.9